EA8URU-13 Weather Reports


Display with metric or nautical units.
time (UTC)temp
F
wind
direction
speed
MPH
gust
MPH
rain 1hr
in
rain 24hr
in
rain mn
in
humidity
%
barometer
mb
20260505060055 61 0 1.0 3.0 0.00 0.00 0.00 86 1013.7
20260505054556 61 0 0.0 1.0 0.00 0.00 0.00 87 1013.7
20260505053049 61 0 0.0 2.0 0.00 0.00 0.00 87 1013.7
20260505051548 61 0 0.0 0.0 0.00 0.00 0.00 87 1013.7
20260505041548 61 0 0.0 1.0 0.00 0.00 0.00 88 1014.1
20260505040050 61 0 0.0 1.0 0.00 0.00 0.00 88 1014.3
20260505034552 62 0 0.0 0.0 0.00 0.00 0.00 88 1014.1
20260505033052 62 0 0.0 3.0 0.00 0.00 0.00 88 1014.0
20260505031552 62 0 0.0 2.0 0.00 0.00 0.00 88 1014.2
20260505030059 62 334 0.0 1.0 0.00 0.00 0.00 88 1014.2
20260505024552 62 0 0.0 1.0 0.00 0.00 0.00 88 1014.3
20260505023052 62 0 0.0 2.0 0.00 0.00 0.00 88 1014.4
20260505021550 62 0 0.0 2.0 0.00 0.00 0.00 88 1014.6
20260505020054 62 0 0.0 3.0 0.00 0.00 0.00 88 1015.0
20260505014555 62 59 0.0 2.0 0.00 0.00 0.00 88 1015.1
20260505013047 62 0 0.0 3.0 0.00 0.00 0.00 87 1015.4
20260505011551 62 0 0.0 2.0 0.00 0.00 0.00 87 1015.5
20260505010108 63 0 0.0 4.0 0.00 0.00 0.00 87 1015.7
20260505004553 63 45 0.0 2.0 0.00 0.00 0.00 87 1015.8
20260505003049 63 0 0.0 4.0 0.00 0.00 0.00 87 1016.1
20260505001547 63 0 0.0 3.0 0.00 0.00 0.00 88 1016.3
20260505000049 63 0 0.0 3.0 0.00 0.00 0.00 88 1016.3
20260504234554 63 0 0.0 3.0 0.00 0.00 0.00 88 1016.4
20260504233051 63 0 0.0 2.0 0.00 0.00 0.00 88 1016.6
20260504231548 63 58 0.0 1.0 0.00 0.00 0.00 88 1016.7
20260504230055 63 49 0.0 3.0 0.00 0.00 0.00 88 1016.7
20260504224558 63 55 0.0 3.0 0.00 0.00 0.00 88 1016.5
20260504223100 63 0 0.0 1.0 0.00 0.00 0.00 88 1016.5
20260504221601 63 54 0.0 2.0 0.00 0.00 0.00 87 1016.4
20260504220055 63 0 0.0 4.0 0.00 0.00 0.00 87 1016.3
20260504214559 63 55 0.0 3.0 0.00 0.00 0.00 87 1016.3
20260504213103 63 59 1.0 4.0 0.00 0.00 0.00 86 1016.1
20260504211551 63 71 0.0 3.0 0.00 0.00 0.00 86 1016.0
20260504210054 63 52 1.0 4.0 0.00 0.00 0.00 85 1015.8
20260504204553 64 0 1.0 4.0 0.00 0.00 0.00 84 1015.7
20260504203052 64 0 0.0 4.0 0.00 0.00 0.00 83 1015.5
20260504201553 64 51 2.0 5.0 0.00 0.00 0.00 81 1015.3
20260504200053 65 63 1.0 6.0 0.00 0.00 0.00 76 1015.2
20260504194556 65 52 3.0 7.0 0.00 0.00 0.00 74 1015.2
20260504193048 65 46 2.0 7.0 0.00 0.00 0.00 73 1015.1
20260504191546 66 53 3.0 7.0 0.00 0.00 0.00 71 1014.9
20260504190050 66 108 2.0 6.0 0.00 0.00 0.00 67 1015.0
20260504184549 67 56 3.0 8.0 0.00 0.00 0.00 65 1015.0
20260504183048 68 63 3.0 8.0 0.00 0.00 0.00 64 1014.7
20260504181551 68 352 3.0 8.0 0.00 0.00 0.00 65 1014.7
20260504180051 69 116 2.0 8.0 0.00 0.00 0.00 66 1014.8
20260504174550 69 77 3.0 8.0 0.00 0.00 0.00 65 1014.9
20260504173050 69 35 4.0 10.0 0.00 0.00 0.00 66 1014.9
20260504171554 69 0 4.0 11.0 0.00 0.00 0.00 65 1014.7
20260504150108 71 56 4.0 10.0 0.00 0.00 0.00 67 1015.1
20260504081556 65 35 3.0 7.0 0.00 0.00 0.00 77 1016.2
20260504080110 65 63 4.0 8.0 0.00 0.00 0.00 78 1016.3